Back to catalog

STARLINK-35319

AliveCommunicationsVLEO
NORAD 65743·PAYLOAD·🇺🇸 United States

Launched Sep 25, 2025 from Cape Canaveral Space Force Station

Loading…

Next Passes (next 24 hours)

TLE

FreshSource: CelesTrak SupGP

Epoch: Sep 14, 2026, 14:44 UTC

1 65743C 25216K   26257.61437500  .00064733  00000+0  19128-2 0  2571
2 65743  53.1568 173.3670 0001154 105.3022  10.2131 15.34354660    12

Track STARLINK-35319 in real time with AllMySat

Download on the App Store